This is the latest recevied weather packets stored in our database for station/object K9APR. If no packets are shown the sender has not sent any weather packets the latest 10 day(s).
| Time | Temp. | Humidity | Pressure | Rain* | Wind** | Luminosity | Snow |
|---|---|---|---|---|---|---|---|
| 1777521361 | 7.78° C | 79% | 1015.2 hPa | 0 mm | - | - | - |
| 1777520821 | 8.33° C | 79% | 1015.1 hPa | 0 mm | - | - | - |
| 1777520280 | 8.33° C | 78% | 1015.2 hPa | 0 mm | - | - | - |
| 1777519741 | 8.33° C | 78% | 1015.2 hPa | 0 mm | - | - | - |
| 1777519201 | 8.33° C | 79% | 1015.1 hPa | 0 mm | - | - | - |
| 1777518661 | 8.33° C | 79% | 1015.2 hPa | 0 mm | - | - | - |
| 1777518120 | 8.89° C | 78% | 1015.2 hPa | 0 mm | - | - | - |
| 1777517581 | 8.89° C | 77% | 1015.1 hPa | 0 mm | - | - | - |
| 1777517042 | 8.89° C | 77% | 1015.1 hPa | 0 mm | - | - | - |
| 1777516500 | 9.44° C | 77% | 1015 hPa | 0 mm | - | - | - |
| 1777515961 | 9.44° C | 76% | 1014.7 hPa | 0 mm | - | - | - |
| 1777515422 | 9.44° C | 76% | 1014.7 hPa | 0 mm | - | - | - |
| 1777514880 | 10° C | 76% | 1014.5 hPa | 0 mm | - | - | - |
| 1777514341 | 10° C | 76% | 1014.5 hPa | 0 mm | - | - | - |
| 1777513801 | 10° C | 76% | 1014.4 hPa | 0 mm | - | - | - |
| 1777513262 | 10.56° C | 76% | 1014.2 hPa | 0 mm | - | - | - |
| 1777512722 | 10.56° C | 75% | 1014.1 hPa | 0 mm | - | - | - |
| 1777512182 | 10.56° C | 74% | 1013.8 hPa | 0 mm | - | - | - |
| 1777511642 | 11.11° C | 73% | 1013.7 hPa | 0 mm | - | - | - |
| 1777511101 | 11.11° C | 73% | 1013.6 hPa | 0 mm | - | - | - |
| 1777510562 | 11.67° C | 73% | 1013.4 hPa | 0 mm | - | - | - |
| 1777510021 | 12.22° C | 73% | 1013.1 hPa | 0 mm | - | - | - |
| 1777509482 | 12.78° C | 72% | 1012.8 hPa | 0 mm | - | - | - |
| 1777508941 | 12.78° C | 73% | 1012.9 hPa | 0 mm | - | - | - |
| 1777508400 | 12.78° C | 72% | 1012.7 hPa | 0 mm | - | - | - |
* Rain latest hour (hover to see other rain measurements)
** Current wind speed in m/s (hover to see current wind gust speed)